This is the latest recevied weather packets stored in our database for station/object YO4CIL-MG. If no packets are shown the sender has not sent any weather packets the latest 10 day(s).
| Time | Temp. | Humidity | Pressure | Rain* | Wind** | Luminosity | Snow |
|---|---|---|---|---|---|---|---|
| 1777592121 | 7.78° C | 69% | 1023.9 hPa | - | - | - | - |
| 1777591520 | 7.78° C | 70% | 1024 hPa | - | - | - | - |
| 1777590919 | 7.22° C | 71% | 1024.1 hPa | - | - | - | - |
| 1777590319 | 7.78° C | 72% | 1024.1 hPa | - | - | - | - |
| 1777589720 | 7.22° C | 72% | 1024.3 hPa | - | - | - | - |
| 1777589120 | 7.22° C | 73% | 1024.2 hPa | - | - | - | - |
| 1777588520 | 7.22° C | 76% | 1024.3 hPa | - | - | - | - |
| 1777587919 | 6.67° C | 76% | 1024.4 hPa | - | - | - | - |
| 1777587319 | 7.22° C | 75% | 1024.5 hPa | - | - | - | - |
| 1777586719 | 7.78° C | 73% | 1024.6 hPa | - | - | - | - |
| 1777586119 | 7.22° C | 74% | 1024.6 hPa | - | - | - | - |
| 1777585519 | 7.22° C | 74% | 1024.6 hPa | - | - | - | - |
| 1777584920 | 7.22° C | 72% | 1024.5 hPa | - | - | - | - |
| 1777584319 | 7.22° C | 71% | 1024.5 hPa | - | - | - | - |
| 1777583720 | 7.22° C | 70% | 1024.6 hPa | - | - | - | - |
| 1777583120 | 7.78° C | 67% | 1024.7 hPa | - | - | - | - |
| 1777582519 | 7.78° C | 67% | 1024.4 hPa | - | - | - | - |
| 1777581919 | 7.78° C | 67% | 1024.3 hPa | - | - | - | - |
| 1777581319 | 8.33° C | 66% | 1024.4 hPa | - | - | - | - |
| 1777580719 | 7.78° C | 65% | 1024.4 hPa | - | - | - | - |
| 1777580119 | 7.78° C | 63% | 1024.2 hPa | - | - | - | - |
| 1777579519 | 8.33° C | 61% | 1024.1 hPa | - | - | - | - |
| 1777578919 | 8.33° C | 61% | 1024.1 hPa | - | - | - | - |
| 1777578319 | 8.33° C | 58% | 1023.9 hPa | - | - | - | - |
| 1777577720 | 8.89° C | 58% | 1023.8 hPa | - | - | - | - |
* Rain since midnight (hover to see other rain measurements)
** Current wind speed in m/s (hover to see current wind gust speed)